This demonstration page uses our WeatherBlox Daily Observations layout. Learn more.

Left ArrowRight Arrow

53.62937, 11.41316

Hourly Observations for April 14, 2021

Temp ( °F °C ) Dew Point ( °F °C ) Humidity (%) Winds ( mph kmh ) Pressure ( in mb ) Visibility ( mi km ) Precip ( " mm )
7:50 am 07:50 Partly Cloudy 34 1 32 undefined 93 93 SW 5 7 30.36 1028 30 48 N/A
8:20 am 08:20 Partly Cloudy 36 2 32 undefined 87 87 WSW 5 7 30.39 1029 30 48 N/A
8:50 am 08:50 Mostly Sunny 37 3 34 1 87 87 WSW 6 9 30.39 1029 30 48 N/A
9:20 am 09:20 Mostly Sunny 41 5 34 1 76 76 WSW 5 7 30.39 1029 30 48 N/A
9:50 am 09:50 Partly Cloudy 43 6 34 1 71 71 WSW 7 11 30.36 1028 30 48 N/A
10:20 am 10:20 Partly Cloudy 43 6 34 1 71 71 W 6 9 30.36 1028 30 48 N/A
10:50 am 10:50 Partly Cloudy 43 6 32 undefined 66 66 W 6 9 30.36 1028 30 48 N/A
11:20 am 11:20 Partly Cloudy 45 7 34 1 66 66 W 6 9 30.36 1028 30 48 N/A
11:50 am 11:50 Partly Cloudy 46 8 32 undefined 57 57 VRB 6 9 30.36 1028 30 48 N/A
12:20 pm 12:20 Partly Cloudy 45 7 30 -1 57 57 VRB 6 9 30.36 1028 30 48 N/A
12:50 pm 12:50 Partly Cloudy 46 8 27 -3 46 46 VRB 7 11 30.36 1028 30 48 N/A
1:20 pm 13:20 Partly Cloudy 45 7 27 -3 49 49 WNW 5 7 30.36 1028 30 48 N/A
1:50 pm 13:50 Mostly Sunny 50 10 30 -1 47 47 NNW 13 20 30.36 1028 7 11 N/A
2:20 pm 14:20 Mostly Sunny 48 9 27 -3 43 43 WNW 6 9 30.36 1028 7 11 N/A
2:50 pm 14:50 Mostly Sunny 50 10 23 -5 35 35 VRB 6 9 30.36 1028 7 11 N/A
3:20 pm 15:20 Partly Cloudy with Showers Nearby 46 8 27 -3 46 46 NNE 12 19 30.36 1028 30 48 N/A
3:50 pm 15:50 Partly Cloudy with Showers Nearby 46 8 27 -3 46 46 NNE 8 13 30.36 1028 30 48 N/A
4:20 pm 16:20 Partly Cloudy with Showers Nearby 46 8 25 -4 43 43 NNE 10 17 30.33 1027 30 48 N/A
4:50 pm 16:50 Partly Cloudy with Showers Nearby 48 9 23 -5 37 37 NE 10 17 30.33 1027 30 48 N/A
5:20 pm 17:20 Mostly Sunny 46 8 19 -7 34 34 ENE 12 19 30.33 1027 7 11 N/A
5:50 pm 17:50 Mostly Sunny 46 8 19 -7 34 34 NE 9 15 30.33 1027 7 11 N/A
6:20 pm 18:20 Mostly Sunny 46 8 18 -8 32 32 NNE 9 15 30.33 1027 7 11 N/A
6:50 pm 18:50 Mostly Sunny 46 8 18 -8 32 32 NE 10 17 30.33 1027 7 11 N/A
7:20 pm 19:20 Mostly Sunny 45 7 18 -8 34 34 NE 10 17 30.36 1028 7 11 N/A
7:50 pm 19:50 Mostly Sunny 43 6 23 -5 46 46 NE 8 13 30.36 1028 7 11 N/A
8:20 pm 20:20 Mostly Clear 39 4 23 -5 52 52 NE 7 11 30.36 1028 7 11 N/A
8:50 pm 20:50 Mostly Clear 39 4 25 -4 56 56 NE 6 9 30.36 1028 7 11 N/A
9:20 pm 21:20 Mostly Clear 39 4 23 -5 52 52 ENE 3 6 30.36 1028 7 11 N/A
9:50 pm 21:50 Mostly Clear 37 3 23 -5 56 56 ENE 2 4 30.39 1029 7 11 N/A

Powered by AerisWeather